Weather in Zalesovo

Russia / Altai Krai     53°59′23″N   84°44′50″E
temp.,
°C
wind,
m/s
gust,
m/s
humid.,
%
clouds,
%
prec.,
mm/h
press.,
hPa
HPBL,
m
23 april, fri
fri2301:00−2nne412782 0.0 1041380
04:00−2nne411825 0.0 1041346
07:00−2nne512835 0.0 1041363
10:00+2nne59725 0.0 10411071
13:00+4nne685156 0.0 10401725
16:00+5ne685085 0.0 10391820
19:00+4nne596322 0.0 1039584
22:000nne4117999 0.0 1039302
24 april, sat
sat2401:00−1nne41281100 0.0 1038328
04:00−1n4118599 0.0 1036306
07:000n5128289 0.0 1035466
10:00+3nne6966100 0.0 1034924
13:00+6nne6755100 0.1 10321686
16:00+5nne4661100 0.5 10321299
19:00+4n2476100 1.1 1033189
22:00+1ene0184100 0.2 103310
25 april, sun
sun2501:000w018699 0.2 103310
04:00−1wnw11888 0.0 103310
07:00−1n118532 0.0 103414
10:00+4wnw12685 0.0 1033459
13:00+7wnw225690 0.1 10321560
16:00+8nnw225484 0.1 10311354
19:00+7ne22639 0.1 1031368
22:00+3e22735 0.0 103115
26 april, mon
mon2601:00+2ese22795 0.0 103116
04:00+1ese228266 0.0 103118
07:00+2ese248287 0.0 103192
10:00+6se3566100 0.0 1030462
13:00+9se4551100 0.0 10281156
16:00+10sse464577 0.0 10261407
19:00+10sse475489 0.0 1025438
22:00+5se41072100 0.0 1024188
27 april, tue
tue2701:00+5sse51375100 0.0 1022304
04:00+5sse5984100 0.9 1020204
07:00+7sw41294100 1.9 1020473
10:00+10w496273 0.2 1021828
13:00+12wnw61041100 0.2 10222248
16:00+13wnw6936100 0.0 10222475
19:00+12w2352100 0.0 102193
22:00+9s2257100 0.0 102211